Location: Brodeslavy
(49.9527°N, 13.5567°E)
Time: 20:00:00
(UTC+00:00)

Cosmos 1833 Rocket - Pass Details

Date: 17 June 2025
Orbit: 832 x 837 km, 71.0° (Epoch: 16 July)

Event Time Altitude Azimuth Distance (km) Brightness Sun altitude
Rises 22:39:42 0° 332° (NNW) 3,396 7.2 -16.4°
Reaches altitude 10° 22:42:13 10° 337° (NNW) 2,457 6.3 -16.4°
Maximum altitude 22:47:45 55° 55° (NE) 995 3.2 -16.5°
Enters shadow 22:52:20 15° 131° (SE) 2,114 4.4 -16.6°
